| time (UTC) | temp F | wind direction | speed MPH | gust MPH | rain 1hr in | rain 24hr in | rain mn in | humidity % | barometer mb |
| 20260509043331 | 53 | 188 | 1.0 | 3.0 | 0.00 | 0.01 | 0.00 | 88 | 1006.9 |
| 20260509043003 | 52 | 189 | 0.0 | 3.0 | 0.00 | 0.01 | 0.00 | 89 | 1007.0 |
| 20260509042832 | 53 | 189 | 1.0 | 3.0 | 0.00 | 0.01 | 0.00 | 89 | 1006.8 |
| 20260509042312 | 53 | 202 | 0.0 | 4.0 | 0.00 | 0.01 | 0.00 | 88 | 1007.0 |
| 20260509041935 | 53 | 180 | 2.0 | 4.0 | 0.00 | 0.01 | 0.00 | 88 | 1007.0 |
| 20260509041519 | 53 | 173 | 0.0 | 2.0 | 0.00 | 0.01 | 0.00 | 88 | 1006.9 |
| 20260509041354 | 53 | 173 | 0.0 | 2.0 | 0.00 | 0.01 | 0.00 | 88 | 1007.0 |
| 20260509040815 | 53 | 173 | 1.0 | 2.0 | 0.00 | 0.01 | 0.00 | 88 | 1007.0 |
| 20260509040336 | 54 | 178 | 1.0 | 2.0 | 0.00 | 0.01 | 0.00 | 87 | 1007.0 |
| 20260509040019 | 53 | 178 | 0.0 | 2.0 | 0.00 | 0.01 | 0.01 | 87 | 1007.2 |
| 20260509035812 | 54 | 178 | 1.0 | 2.0 | 0.00 | 0.01 | 0.01 | 86 | 1007.1 |
| 20260509035315 | 54 | 178 | 1.0 | 2.0 | 0.00 | 0.01 | 0.01 | 86 | 1007.2 |
| 20260509034814 | 54 | 177 | 1.0 | 3.0 | 0.00 | 0.01 | 0.01 | 86 | 1007.1 |
| 20260509034513 | 54 | 178 | 0.0 | 3.0 | 0.00 | 0.01 | 0.01 | 86 | 1007.2 |
| 20260509034316 | 55 | 178 | 1.0 | 3.0 | 0.00 | 0.01 | 0.01 | 86 | 1007.2 |
| 20260509033818 | 55 | 199 | 1.0 | 2.0 | 0.00 | 0.01 | 0.01 | 85 | 1007.3 |
| 20260509033319 | 55 | 198 | 0.0 | 2.0 | 0.00 | 0.01 | 0.01 | 84 | 1007.3 |
| 20260509033025 | 55 | 198 | 0.0 | 2.0 | 0.00 | 0.01 | 0.01 | 84 | 1007.3 |
| 20260509032821 | 55 | 198 | 0.0 | 2.0 | 0.00 | 0.01 | 0.01 | 84 | 1007.3 |
| 20260509032410 | 55 | 198 | 0.0 | 3.0 | 0.00 | 0.01 | 0.01 | 84 | 1007.3 |
| 20260509031828 | 56 | 200 | 1.0 | 6.0 | 0.00 | 0.01 | 0.01 | 84 | 1007.3 |
| 20260509031525 | 55 | 200 | 1.0 | 6.0 | 0.00 | 0.01 | 0.01 | 84 | 1007.3 |
| 20260509031350 | 56 | 223 | 2.0 | 6.0 | 0.00 | 0.01 | 0.01 | 84 | 1007.3 |
| 20260509030917 | 56 | 225 | 1.0 | 5.0 | 0.00 | 0.01 | 0.01 | 84 | 1007.4 |
| 20260509030834 | 56 | 225 | 1.0 | 5.0 | 0.00 | 0.01 | 0.01 | 84 | 1007.4 |
| 20260509030341 | 55 | 222 | 1.0 | 4.0 | 0.00 | 0.01 | 0.01 | 84 | 1007.5 |
| 20260509030023 | 55 | 223 | 1.0 | 4.0 | 0.00 | 0.01 | 0.01 | 85 | 1007.5 |
| 20260509025820 | 55 | 238 | 1.0 | 4.0 | 0.00 | 0.01 | 0.01 | 85 | 1007.4 |
| 20260509025340 | 55 | 188 | 1.0 | 5.0 | 0.00 | 0.01 | 0.01 | 86 | 1007.5 |
| 20260509024821 | 55 | 205 | 1.0 | 4.0 | 0.00 | 0.01 | 0.01 | 86 | 1007.6 |
| 20260509024553 | 55 | 180 | 1.0 | 4.0 | 0.00 | 0.01 | 0.01 | 87 | 1007.7 |
| 20260509024406 | 55 | 198 | 1.0 | 4.0 | 0.00 | 0.01 | 0.01 | 87 | 1007.6 |
| 20260509023844 | 55 | 188 | 1.0 | 4.0 | 0.00 | 0.01 | 0.01 | 87 | 1007.5 |
| 20260509023324 | 55 | 194 | 1.0 | 5.0 | 0.00 | 0.01 | 0.01 | 88 | 1007.5 |
| 20260509023033 | 54 | 193 | 0.0 | 5.0 | 0.00 | 0.01 | 0.01 | 88 | 1007.6 |
| 20260509022842 | 55 | 180 | 1.0 | 5.0 | 0.00 | 0.01 | 0.01 | 88 | 1007.5 |
| 20260509022324 | 55 | 187 | 2.0 | 6.0 | 0.00 | 0.01 | 0.01 | 89 | 1007.5 |
| 20260509021824 | 55 | 182 | 0.0 | 2.0 | 0.00 | 0.01 | 0.01 | 89 | 1007.5 |
| 20260509021540 | 54 | 182 | 0.0 | 6.0 | 0.00 | 0.01 | 0.01 | 89 | 1007.6 |
| 20260509021411 | 54 | 182 | 1.0 | 6.0 | 0.00 | 0.01 | 0.01 | 89 | 1007.5 |
| 20260509020810 | 54 | 182 | 1.0 | 6.0 | 0.00 | 0.01 | 0.01 | 89 | 1007.5 |
| 20260509020337 | 54 | 190 | 1.0 | 2.0 | 0.00 | 0.01 | 0.01 | 89 | 1007.5 |
| 20260509020003 | 54 | 191 | 0.0 | 1.0 | 0.00 | 0.01 | 0.01 | 89 | 1007.6 |
| 20260509015818 | 54 | 191 | 0.0 | 1.0 | 0.00 | 0.01 | 0.01 | 89 | 1007.5 |
| 20260509015426 | 55 | 191 | 1.0 | 1.0 | 0.00 | 0.01 | 0.01 | 89 | 1007.5 |
| 20260509015322 | 55 | 191 | 1.0 | 1.0 | 0.00 | 0.01 | 0.01 | 89 | 1007.5 |
| 20260509014824 | 55 | 191 | 1.0 | 1.0 | 0.00 | 0.01 | 0.01 | 88 | 1007.5 |
| 20260509014547 | 54 | 191 | 0.0 | 1.0 | 0.00 | 0.01 | 0.01 | 88 | 1007.6 |
| 20260509014325 | 55 | 191 | 0.0 | 1.0 | 0.00 | 0.01 | 0.01 | 87 | 1007.5 |
| 20260509013827 | 55 | 191 | 0.0 | 0.0 | 0.00 | 0.01 | 0.01 | 87 | 1007.4 |
| 20260509013330 | 55 | 191 | 0.0 | 0.0 | 0.00 | 0.01 | 0.01 | 86 | 1007.4 |
| 20260509013043 | 55 | 191 | 0.0 | 0.0 | 0.00 | 0.01 | 0.01 | 86 | 1007.5 |
| 20260509012810 | 55 | 191 | 0.0 | 0.0 | 0.00 | 0.01 | 0.01 | 86 | 1007.4 |
| 20260509012332 | 55 | 191 | 0.0 | 1.0 | 0.00 | 0.01 | 0.01 | 84 | 1007.3 |
| 20260509011833 | 56 | 191 | 0.0 | 1.0 | 0.00 | 0.01 | 0.01 | 84 | 1007.2 |
| 20260509011538 | 55 | 191 | 0.0 | 1.0 | 0.00 | 0.01 | 0.01 | 84 | 1007.2 |
| 20260509011416 | 56 | 191 | 0.0 | 1.0 | 0.00 | 0.01 | 0.01 | 84 | 1007.1 |
| 20260509010852 | 56 | 191 | 0.0 | 1.0 | 0.00 | 0.01 | 0.01 | 83 | 1007.1 |
| 20260509010354 | 57 | 192 | 0.0 | 1.0 | 0.00 | 0.01 | 0.01 | 83 | 1007.1 |
| 20260509010037 | 57 | 192 | 0.0 | 1.0 | 0.00 | 0.14 | 0.01 | 83 | 1007.2 |
| 20260509005813 | 57 | 192 | 0.0 | 1.0 | 0.00 | 0.14 | 0.01 | 83 | 1007.0 |
| 20260509005334 | 58 | 192 | 0.0 | 1.0 | 0.00 | 0.14 | 0.01 | 82 | 1007.0 |
| 20260509004814 | 58 | 192 | 0.0 | 1.0 | 0.00 | 0.14 | 0.01 | 81 | 1007.0 |
| 20260509004536 | 58 | 192 | 0.0 | 0.0 | 0.00 | 0.14 | 0.01 | 81 | 1007.1 |
| 20260509004403 | 59 | 192 | 0.0 | 0.0 | 0.00 | 0.14 | 0.01 | 81 | 1006.9 |
| 20260509004321 | 59 | 192 | 0.0 | 0.0 | 0.00 | 0.14 | 0.01 | 81 | 1006.9 |
| 20260509003843 | 59 | 192 | 0.0 | 1.0 | 0.00 | 0.14 | 0.01 | 80 | 1006.9 |
| 20260509003321 | 59 | 192 | 0.0 | 1.0 | 0.00 | 0.14 | 0.01 | 79 | 1006.9 |
| 20260509003051 | 59 | 192 | 0.0 | 1.0 | 0.00 | 0.14 | 0.01 | 79 | 1006.9 |
| 20260509002843 | 60 | 192 | 0.0 | 3.0 | 0.00 | 0.14 | 0.01 | 79 | 1006.8 |
| 20260509002324 | 60 | 192 | 1.0 | 3.0 | 0.00 | 0.14 | 0.01 | 78 | 1006.9 |
| 20260509001826 | 60 | 192 | 1.0 | 3.0 | 0.00 | 0.14 | 0.01 | 77 | 1006.8 |
| 20260509001529 | 60 | 192 | 2.0 | 3.0 | 0.00 | 0.14 | 0.01 | 77 | 1006.9 |
| 20260509001413 | 60 | 187 | 2.0 | 4.0 | 0.00 | 0.14 | 0.01 | 77 | 1006.8 |
| 20260509000849 | 61 | 203 | 1.0 | 5.0 | 0.00 | 0.14 | 0.01 | 76 | 1006.8 |
| 20260509000349 | 61 | 187 | 2.0 | 5.0 | 0.00 | 0.14 | 0.01 | 76 | 1006.8 |
| 20260509000036 | 61 | 210 | 1.0 | 4.0 | 0.00 | 0.14 | 0.01 | 76 | 1007.0 |
| 20260508235915 | 61 | 187 | 2.0 | 4.0 | 0.00 | 0.14 | 0.01 | 76 | 1006.9 |
| 20260508235812 | 61 | 187 | 2.0 | 4.0 | 0.00 | 0.14 | 0.01 | 76 | 1006.9 |
| 20260508235333 | 61 | 171 | 1.0 | 3.0 | 0.00 | 0.14 | 0.01 | 75 | 1007.0 |
| 20260508234835 | 61 | 213 | 1.0 | 5.0 | 0.00 | 0.14 | 0.01 | 76 | 1007.0 |
| 20260508234606 | 61 | 213 | 1.0 | 5.0 | 0.00 | 0.14 | 0.01 | 76 | 1007.1 |
| 20260508234500 | 61 | 213 | 2.0 | 5.0 | 0.00 | 0.14 | 0.01 | 76 | 1007.0 |
| 20260508234340 | 61 | 207 | 2.0 | 5.0 | 0.00 | 0.14 | 0.01 | 76 | 1007.0 |
| 20260508233820 | 61 | 284 | 3.0 | 5.0 | 0.00 | 0.14 | 0.01 | 76 | 1007.0 |
| 20260508233320 | 61 | 228 | 1.0 | 5.0 | 0.00 | 0.14 | 0.01 | 77 | 1007.1 |
| 20260508233059 | 60 | 189 | 1.0 | 5.0 | 0.00 | 0.14 | 0.01 | 77 | 1007.2 |
| 20260508232843 | 61 | 184 | 3.0 | 5.0 | 0.00 | 0.14 | 0.01 | 77 | 1007.1 |
| 20260508232349 | 61 | 176 | 2.0 | 5.0 | 0.00 | 0.14 | 0.01 | 77 | 1007.1 |
| 20260508231851 | 61 | 193 | 1.0 | 5.0 | 0.00 | 0.14 | 0.01 | 76 | 1007.0 |
| 20260508231517 | 61 | 181 | 1.0 | 7.0 | 0.00 | 0.14 | 0.01 | 75 | 1007.1 |
| 20260508231434 | 61 | 209 | 2.0 | 7.0 | 0.00 | 0.14 | 0.01 | 76 | 1007.0 |
| 20260508230855 | 62 | 177 | 4.0 | 7.0 | 0.00 | 0.14 | 0.01 | 75 | 1007.1 |
| 20260508230334 | 62 | 160 | 1.0 | 5.0 | 0.00 | 0.14 | 0.01 | 75 | 1007.2 |
| 20260508230055 | 61 | 243 | 1.0 | 5.0 | 0.00 | 0.14 | 0.01 | 74 | 1007.3 |
| 20260508225814 | 62 | 224 | 2.0 | 5.0 | 0.00 | 0.14 | 0.01 | 74 | 1007.2 |
| 20260508225403 | 62 | 186 | 2.0 | 5.0 | 0.00 | 0.14 | 0.01 | 74 | 1007.2 |
| 20260508224842 | 62 | 230 | 1.0 | 6.0 | 0.00 | 0.14 | 0.01 | 73 | 1007.1 |
| 20260508224548 | 62 | 230 | 1.0 | 6.0 | 0.00 | 0.14 | 0.01 | 74 | 1007.2 |
| 20260508224323 | 62 | 224 | 2.0 | 6.0 | 0.00 | 0.14 | 0.01 | 73 | 1007.1 |
| 20260508223826 | 62 | 203 | 3.0 | 5.0 | 0.00 | 0.14 | 0.01 | 73 | 1007.1 |
| 20260508223353 | 62 | 282 | 2.0 | 5.0 | 0.00 | 0.14 | 0.01 | 75 | 1007.3 |
| 20260508223044 | 61 | 298 | 2.0 | 5.0 | 0.00 | 0.14 | 0.01 | 74 | 1007.3 |
| 20260508222814 | 62 | 279 | 2.0 | 5.0 | 0.00 | 0.14 | 0.01 | 74 | 1007.3 |
| 20260508222422 | 62 | 275 | 2.0 | 4.0 | 0.00 | 0.14 | 0.01 | 73 | 1007.3 |
| 20260508221841 | 62 | 190 | 2.0 | 4.0 | 0.00 | 0.14 | 0.01 | 74 | 1007.3 |
| 20260508221557 | 61 | 198 | 1.0 | 6.0 | 0.00 | 0.14 | 0.01 | 75 | 1007.3 |
| 20260508221343 | 62 | 188 | 3.0 | 6.0 | 0.00 | 0.14 | 0.01 | 75 | 1007.3 |
| 20260508220823 | 62 | 184 | 3.0 | 6.0 | 0.00 | 0.14 | 0.01 | 75 | 1007.2 |
| 20260508220342 | 62 | 157 | 2.0 | 4.0 | 0.00 | 0.14 | 0.01 | 74 | 1007.3 |
| 20260508220101 | 62 | 191 | 1.0 | 5.0 | 0.00 | 0.14 | 0.01 | 73 | 1007.4 |
| 20260508215843 | 63 | 300 | 2.0 | 4.0 | 0.00 | 0.14 | 0.01 | 74 | 1007.3 |
| 20260508215431 | 63 | 207 | 3.0 | 8.0 | 0.00 | 0.14 | 0.01 | 73 | 1007.3 |
| 20260508215348 | 63 | 207 | 3.0 | 8.0 | 0.00 | 0.14 | 0.01 | 73 | 1007.3 |
| 20260508214829 | 63 | 181 | 4.0 | 8.0 | 0.00 | 0.14 | 0.01 | 73 | 1007.3 |
| 20260508214533 | 63 | 212 | 3.0 | 7.0 | 0.00 | 0.14 | 0.01 | 73 | 1007.4 |
| 20260508214331 | 63 | 229 | 3.0 | 8.0 | 0.00 | 0.14 | 0.01 | 75 | 1007.3 |
| 20260508213812 | 62 | 234 | 2.0 | 8.0 | 0.00 | 0.14 | 0.01 | 75 | 1007.4 |
| 20260508213420 | 62 | 215 | 4.0 | 8.0 | 0.00 | 0.14 | 0.01 | 75 | 1007.4 |
| 20260508213017 | 61 | 175 | 3.0 | 8.0 | 0.00 | 0.14 | 0.01 | 74 | 1007.7 |
| 20260508212821 | 61 | 219 | 4.0 | 8.0 | 0.00 | 0.14 | 0.01 | 75 | 1007.5 |
| 20260508212429 | 61 | 179 | 1.0 | 7.0 | 0.00 | 0.14 | 0.01 | 75 | 1007.6 |
| 20260508211827 | 62 | 199 | 1.0 | 5.0 | 0.00 | 0.14 | 0.01 | 75 | 1007.6 |
| 20260508211557 | 61 | 186 | 2.0 | 5.0 | 0.00 | 0.14 | 0.01 | 74 | 1007.8 |
| 20260508211329 | 62 | 209 | 2.0 | 5.0 | 0.00 | 0.14 | 0.01 | 75 | 1007.7 |
| 20260508210915 | 61 | 268 | 2.0 | 5.0 | 0.00 | 0.14 | 0.01 | 74 | 1007.6 |
| 20260508210832 | 61 | 268 | 2.0 | 5.0 | 0.00 | 0.14 | 0.01 | 74 | 1007.6 |
| 20260508210313 | 61 | 223 | 2.0 | 9.0 | 0.00 | 0.14 | 0.01 | 74 | 1007.8 |
| 20260508210041 | 61 | 227 | 2.0 | 9.0 | 0.00 | 0.14 | 0.01 | 74 | 1007.9 |
| 20260508205812 | 61 | 160 | 2.0 | 9.0 | 0.00 | 0.14 | 0.01 | 74 | 1007.7 |
| 20260508205312 | 62 | 205 | 2.0 | 6.0 | 0.00 | 0.14 | 0.01 | 74 | 1007.8 |
| 20260508204815 | 62 | 201 | 4.0 | 8.0 | 0.00 | 0.14 | 0.01 | 72 | 1007.9 |
| 20260508204527 | 62 | 323 | 2.0 | 8.0 | 0.00 | 0.14 | 0.01 | 72 | 1008.0 |
| 20260508204315 | 62 | 180 | 2.0 | 8.0 | 0.00 | 0.14 | 0.01 | 73 | 1007.9 |
| 20260508203837 | 62 | 324 | 3.0 | 9.0 | 0.00 | 0.14 | 0.01 | 71 | 1008.0 |
| 20260508203403 | 62 | 215 | 4.0 | 9.0 | 0.00 | 0.14 | 0.01 | 71 | 1008.0 |
| 20260508203043 | 61 | 256 | 2.0 | 9.0 | 0.00 | 0.14 | 0.01 | 71 | 1008.2 |
| 20260508202842 | 62 | 161 | 4.0 | 9.0 | 0.00 | 0.14 | 0.01 | 71 | 1008.0 |
| 20260508202409 | 62 | 202 | 4.0 | 10.0 | 0.00 | 0.14 | 0.01 | 71 | 1008.1 |
| 20260508201847 | 62 | 242 | 5.0 | 10.0 | 0.00 | 0.14 | 0.01 | 72 | 1008.2 |
| 20260508201511 | 62 | 203 | 5.0 | 9.0 | 0.00 | 0.14 | 0.01 | 72 | 1008.4 |
| 20260508201416 | 62 | 199 | 5.0 | 9.0 | 0.00 | 0.14 | 0.01 | 72 | 1008.3 |
| 20260508200853 | 62 | 179 | 3.0 | 8.0 | 0.00 | 0.14 | 0.01 | 71 | 1008.3 |
| 20260508200354 | 62 | 281 | 3.0 | 12.0 | 0.00 | 0.14 | 0.01 | 71 | 1008.4 |
| 20260508200008 | 62 | 219 | 5.0 | 12.0 | 0.00 | 0.14 | 0.01 | 71 | 1008.6 |
| 20260508195813 | 62 | 271 | 6.0 | 13.0 | 0.00 | 0.14 | 0.01 | 73 | 1008.5 |
| 20260508195316 | 62 | 242 | 4.0 | 9.0 | 0.00 | 0.14 | 0.01 | 72 | 1008.6 |
| 20260508194835 | 62 | 215 | 5.0 | 11.0 | 0.00 | 0.14 | 0.01 | 72 | 1008.6 |
| 20260508194529 | 62 | 207 | 4.0 | 11.0 | 0.00 | 0.14 | 0.01 | 71 | 1008.7 |
| 20260508194334 | 63 | 153 | 3.0 | 11.0 | 0.00 | 0.14 | 0.01 | 71 | 1008.5 |
| 20260508193901 | 62 | 226 | 5.0 | 10.0 | 0.00 | 0.14 | 0.01 | 75 | 1008.6 |
| 20260508193340 | 62 | 170 | 5.0 | 10.0 | 0.00 | 0.14 | 0.01 | 73 | 1008.7 |
| 20260508193100 | 61 | 173 | 3.0 | 11.0 | 0.00 | 0.14 | 0.01 | 73 | 1008.8 |
| 20260508192840 | 61 | 169 | 4.0 | 11.0 | 0.00 | 0.14 | 0.01 | 72 | 1008.7 |
| 20260508192322 | 61 | 181 | 7.0 | 10.0 | 0.00 | 0.14 | 0.01 | 72 | 1008.9 |
| 20260508191910 | 61 | 191 | 6.0 | 10.0 | 0.00 | 0.14 | 0.01 | 74 | 1008.8 |
| 20260508191828 | 61 | 191 | 6.0 | 10.0 | 0.00 | 0.14 | 0.01 | 74 | 1008.8 |
| 20260508191512 | 61 | 192 | 3.0 | 9.0 | 0.00 | 0.14 | 0.01 | 76 | 1008.9 |
| 20260508191415 | 61 | 262 | 5.0 | 9.0 | 0.00 | 0.14 | 0.01 | 75 | 1008.9 |
| 20260508190814 | 61 | 205 | 4.0 | 9.0 | 0.00 | 0.14 | 0.01 | 75 | 1009.0 |
| 20260508190334 | 61 | 196 | 4.0 | 9.0 | 0.00 | 0.14 | 0.01 | 75 | 1009.2 |
| 20260508190047 | 60 | 117 | 5.0 | 9.0 | 0.00 | 0.14 | 0.01 | 75 | 1009.4 |
| 20260508185855 | 61 | 171 | 5.0 | 9.0 | 0.00 | 0.14 | 0.01 | 74 | 1009.4 |
| 20260508185335 | 61 | 186 | 2.0 | 10.0 | 0.00 | 0.14 | 0.01 | 75 | 1009.4 |
| 20260508184815 | 61 | 215 | 4.0 | 10.0 | 0.00 | 0.14 | 0.01 | 75 | 1009.4 |
| 20260508184549 | 61 | 186 | 4.0 | 10.0 | 0.00 | 0.14 | 0.01 | 75 | 1009.6 |
| 20260508184400 | 62 | 209 | 3.0 | 10.0 | 0.00 | 0.14 | 0.01 | 76 | 1009.5 |
| 20260508183904 | 62 | 217 | 4.0 | 9.0 | 0.00 | 0.14 | 0.01 | 75 | 1009.4 |
| 20260508183411 | 61 | 185 | 4.0 | 12.0 | 0.00 | 0.14 | 0.01 | 75 | 1009.4 |
| 20260508183055 | 61 | 205 | 5.0 | 12.0 | 0.00 | 0.14 | 0.01 | 75 | 1009.6 |
| 20260508182850 | 61 | 203 | 5.0 | 12.0 | 0.00 | 0.14 | 0.01 | 74 | 1009.5 |
| 20260508182351 | 62 | 162 | 5.0 | 10.0 | 0.00 | 0.14 | 0.01 | 75 | 1009.5 |
| 20260508181813 | 61 | 264 | 5.0 | 10.0 | 0.00 | 0.14 | 0.01 | 75 | 1009.5 |
| 20260508181548 | 61 | 155 | 4.0 | 10.0 | 0.00 | 0.14 | 0.01 | 74 | 1009.8 |
| 20260508181313 | 61 | 217 | 7.0 | 10.0 | 0.00 | 0.14 | 0.01 | 74 | 1009.6 |
| 20260508180817 | 61 | 184 | 4.0 | 10.0 | 0.00 | 0.14 | 0.01 | 74 | 1009.7 |
| 20260508180338 | 62 | 214 | 5.0 | 10.0 | 0.00 | 0.14 | 0.01 | 74 | 1009.6 |
| 20260508180011 | 61 | 140 | 3.0 | 9.0 | 0.00 | 0.14 | 0.01 | 72 | 1010.0 |
| 20260508175820 | 62 | 226 | 3.0 | 9.0 | 0.00 | 0.14 | 0.01 | 71 | 1009.7 |
| 20260508175338 | 62 | 184 | 2.0 | 8.0 | 0.00 | 0.14 | 0.01 | 70 | 1009.6 |
| 20260508174905 | 62 | 201 | 4.0 | 9.0 | 0.00 | 0.14 | 0.01 | 71 | 1009.8 |
| 20260508174612 | 61 | 207 | 5.0 | 9.0 | 0.00 | 0.14 | 0.01 | 71 | 1010.1 |
| 20260508174409 | 61 | 188 | 5.0 | 9.0 | 0.00 | 0.14 | 0.01 | 72 | 1009.8 |
| 20260508173850 | 61 | 205 | 3.0 | 7.0 | 0.00 | 0.14 | 0.01 | 70 | 1009.8 |
| 20260508173351 | 62 | 312 | 2.0 | 7.0 | 0.00 | 0.14 | 0.01 | 70 | 1009.9 |
| 20260508173053 | 61 | 198 | 5.0 | 7.0 | 0.00 | 0.14 | 0.01 | 69 | 1010.2 |
| 20260508172830 | 62 | 238 | 3.0 | 8.0 | 0.00 | 0.14 | 0.01 | 72 | 1010.2 |
| 20260508172352 | 62 | 169 | 5.0 | 9.0 | 0.00 | 0.14 | 0.01 | 69 | 1010.3 |
| 20260508171832 | 62 | 221 | 6.0 | 10.0 | 0.00 | 0.14 | 0.01 | 70 | 1010.5 |
| 20260508171512 | 61 | 157 | 2.0 | 5.0 | 0.00 | 0.14 | 0.01 | 67 | 1010.6 |
| 20260508171353 | 62 | 204 | 3.0 | 5.0 | 0.00 | 0.14 | 0.01 | 68 | 1010.5 |
| 20260508170854 | 62 | 230 | 2.0 | 6.0 | 0.00 | 0.14 | 0.01 | 67 | 1010.4 |
| 20260508170313 | 62 | 196 | 2.0 | 7.0 | 0.00 | 0.14 | 0.01 | 68 | 1010.4 |
| 20260508170048 | 61 | 159 | 1.0 | 7.0 | 0.00 | 0.14 | 0.01 | 69 | 1010.7 |
| 20260508165814 | 61 | 322 | 1.0 | 7.0 | 0.00 | 0.14 | 0.01 | 66 | 1010.6 |
| 20260508165335 | 61 | 290 | 2.0 | 5.0 | 0.00 | 0.14 | 0.01 | 65 | 1010.6 |
| 20260508164836 | 61 | 264 | 3.0 | 7.0 | 0.00 | 0.14 | 0.01 | 69 | 1010.8 |
| 20260508164521 | 61 | 273 | 3.0 | 7.0 | 0.00 | 0.14 | 0.01 | 68 | 1011.0 |
| 20260508164354 | 61 | 315 | 2.0 | 7.0 | 0.00 | 0.14 | 0.01 | 65 | 1010.8 |
| 20260508163840 | 61 | 238 | 3.0 | 7.0 | 0.00 | 0.14 | 0.01 | 63 | 1010.8 |
| 20260508163337 | 61 | 173 | 3.0 | 8.0 | 0.00 | 0.14 | 0.01 | 63 | 1010.9 |
| 20260508163013 | 60 | 215 | 4.0 | 8.0 | 0.00 | 0.14 | 0.01 | 68 | 1011.1 |
| 20260508162816 | 61 | 140 | 3.0 | 8.0 | 0.00 | 0.14 | 0.01 | 73 | 1011.0 |
| 20260508162316 | 60 | 119 | 1.0 | 8.0 | 0.00 | 0.14 | 0.01 | 72 | 1011.0 |
| 20260508161816 | 60 | 196 | 4.0 | 6.0 | 0.00 | 0.14 | 0.01 | 77 | 1011.2 |
| 20260508161556 | 59 | 153 | 1.0 | 6.0 | 0.00 | 0.14 | 0.01 | 75 | 1011.4 |
| 20260508161402 | 59 | 200 | 3.0 | 6.0 | 0.00 | 0.14 | 0.01 | 77 | 1011.2 |
| 20260508160841 | 58 | 315 | 2.0 | 9.0 | 0.00 | 0.14 | 0.01 | 74 | 1011.3 |
| 20260508160340 | 59 | 321 | 3.0 | 9.0 | 0.00 | 0.14 | 0.01 | 77 | 1011.3 |
| 20260508160008 | 58 | 237 | 1.0 | 8.0 | 0.00 | 0.14 | 0.01 | 80 | 1011.6 |
| 20260508155817 | 58 | 278 | 3.0 | 8.0 | 0.00 | 0.14 | 0.01 | 79 | 1011.3 |
| 20260508155318 | 58 | 330 | 3.0 | 8.0 | 0.00 | 0.14 | 0.01 | 80 | 1011.3 |
| 20260508154924 | 58 | 269 | 4.0 | 8.0 | 0.00 | 0.14 | 0.01 | 82 | 1011.3 |
| 20260508154842 | 58 | 269 | 4.0 | 8.0 | 0.00 | 0.14 | 0.01 | 82 | 1011.3 |
| 20260508154552 | 57 | 221 | 2.0 | 7.0 | 0.00 | 0.14 | 0.01 | 80 | 1011.6 |
| 20260508154322 | 58 | 300 | 4.0 | 6.0 | 0.00 | 0.14 | 0.01 | 79 | 1011.3 |
| 20260508153823 | 58 | 222 | 3.0 | 7.0 | 0.00 | 0.14 | 0.01 | 81 | 1011.3 |
| 20260508153425 | 57 | 131 | 3.0 | 7.0 | 0.00 | 0.14 | 0.01 | 82 | 1011.3 |
| 20260508153042 | 56 | 188 | 4.0 | 6.0 | 0.00 | 0.14 | 0.01 | 82 | 1011.7 |
| 20260508152845 | 57 | 202 | 3.0 | 4.0 | 0.00 | 0.14 | 0.01 | 82 | 1011.4 |
| 20260508152411 | 57 | 282 | 3.0 | 8.0 | 0.00 | 0.14 | 0.01 | 82 | 1011.3 |
| 20260508152328 | 57 | 282 | 3.0 | 8.0 | 0.00 | 0.14 | 0.01 | 82 | 1011.3 |
| 20260508151937 | 57 | 221 | 4.0 | 8.0 | 0.00 | 0.14 | 0.01 | 82 | 1011.3 |
| 20260508151834 | 57 | 221 | 4.0 | 8.0 | 0.00 | 0.14 | 0.01 | 82 | 1011.3 |
| 20260508151602 | 56 | 264 | 3.0 | 8.0 | 0.00 | 0.14 | 0.01 | 84 | 1011.5 |
| 20260508151508 | 56 | 303 | 3.0 | 8.0 | 0.00 | 0.14 | 0.01 | 83 | 1011.4 |
| 20260508151354 | 57 | 164 | 2.0 | 8.0 | 0.00 | 0.14 | 0.01 | 84 | 1011.2 |
| 20260508150812 | 56 | 198 | 3.0 | 6.0 | 0.00 | 0.14 | 0.01 | 84 | 1011.2 |
| 20260508150313 | 55 | 215 | 3.0 | 6.0 | 0.00 | 0.14 | 0.01 | 84 | 1011.2 |
| 20260508150008 | 55 | 218 | 2.0 | 5.0 | 0.00 | 0.14 | 0.01 | 86 | 1011.4 |
| 20260508145814 | 55 | 187 | 2.0 | 5.0 | 0.00 | 0.14 | 0.01 | 84 | 1011.2 |
| 20260508145335 | 55 | 219 | 1.0 | 5.0 | 0.00 | 0.14 | 0.01 | 85 | 1011.2 |
| 20260508144815 | 54 | 223 | 3.0 | 5.0 | 0.00 | 0.14 | 0.01 | 86 | 1011.1 |
| 20260508144535 | 54 | 186 | 2.0 | 6.0 | 0.00 | 0.14 | 0.01 | 86 | 1011.3 |
| 20260508144316 | 54 | 210 | 3.0 | 6.0 | 0.00 | 0.14 | 0.01 | 87 | 1011.2 |
| 20260508143923 | 53 | 223 | 4.0 | 6.0 | 0.00 | 0.14 | 0.01 | 87 | 1011.2 |
| 20260508143841 | 53 | 223 | 4.0 | 6.0 | 0.00 | 0.14 | 0.01 | 87 | 1011.2 |
| 20260508143320 | 53 | 200 | 2.0 | 5.0 | 0.00 | 0.14 | 0.01 | 91 | 1011.3 |
| 20260508143044 | 52 | 211 | 2.0 | 5.0 | 0.00 | 0.14 | 0.01 | 89 | 1011.6 |
| 20260508142836 | 52 | 198 | 3.0 | 6.0 | 0.00 | 0.14 | 0.01 | 90 | 1011.4 |
| 20260508142403 | 52 | 237 | 2.0 | 5.0 | 0.00 | 0.14 | 0.01 | 90 | 1011.7 |
| 20260508142321 | 52 | 237 | 2.0 | 5.0 | 0.00 | 0.14 | 0.01 | 90 | 1011.7 |
| 20260508141909 | 51 | 205 | 2.0 | 5.0 | 0.00 | 0.14 | 0.01 | 90 | 1011.6 |
| 20260508141543 | 51 | 259 | 3.0 | 7.0 | 0.00 | 0.14 | 0.01 | 91 | 1011.9 |
| 20260508141329 | 51 | 178 | 3.0 | 7.0 | 0.00 | 0.14 | 0.01 | 91 | 1011.6 |
| 20260508140917 | 51 | 215 | 4.0 | 7.0 | 0.00 | 0.14 | 0.01 | 93 | 1011.7 |
| 20260508140813 | 51 | 215 | 4.0 | 7.0 | 0.00 | 0.14 | 0.01 | 93 | 1011.7 |
| 20260508140334 | 51 | 301 | 2.0 | 6.0 | 0.00 | 0.14 | 0.01 | 94 | 1011.7 |
| 20260508140058 | 50 | 262 | 3.0 | 6.0 | 0.00 | 0.14 | 0.01 | 94 | 1012.1 |
| 20260508135834 | 50 | 232 | 3.0 | 6.0 | 0.00 | 0.14 | 0.01 | 94 | 1011.9 |
| 20260508135313 | 50 | 217 | 4.0 | 6.0 | 0.00 | 0.14 | 0.01 | 96 | 1011.9 |
| 20260508134813 | 49 | 219 | 2.0 | 6.0 | 0.00 | 0.14 | 0.01 | 96 | 1012.0 |
| 20260508134522 | 49 | 207 | 1.0 | 6.0 | 0.00 | 0.14 | 0.01 | 96 | 1012.2 |
| 20260508134315 | 49 | 207 | 2.0 | 6.0 | 0.00 | 0.14 | 0.01 | 96 | 1011.9 |
| 20260508133837 | 49 | 221 | 3.0 | 6.0 | 0.00 | 0.14 | 0.01 | 97 | 1012.0 |
| 20260508133317 | 49 | 178 | 3.0 | 4.0 | 0.00 | 0.14 | 0.01 | 97 | 1011.9 |
| 20260508133048 | 48 | 214 | 0.0 | 3.0 | 0.00 | 0.14 | 0.01 | 97 | 1012.1 |
| 20260508132905 | 49 | 214 | 0.0 | 3.0 | 0.00 | 0.14 | 0.01 | 97 | 1011.8 |
| 20260508132823 | 49 | 214 | 0.0 | 3.0 | 0.00 | 0.14 | 0.01 | 97 | 1011.8 |
| 20260508132426 | 48 | 214 | 2.0 | 4.0 | 0.00 | 0.14 | 0.01 | 97 | 1011.7 |
| 20260508132344 | 48 | 214 | 2.0 | 4.0 | 0.00 | 0.14 | 0.01 | 97 | 1011.7 |
| 20260508131843 | 48 | 205 | 1.0 | 4.0 | 0.00 | 0.14 | 0.01 | 97 | 1011.8 |
| 20260508131524 | 48 | 205 | 2.0 | 4.0 | 0.00 | 0.14 | 0.01 | 97 | 1012.1 |
| 20260508131323 | 48 | 201 | 1.0 | 4.0 | 0.00 | 0.14 | 0.01 | 97 | 1011.8 |
| 20260508130824 | 48 | 236 | 0.0 | 2.0 | 0.00 | 0.14 | 0.01 | 97 | 1011.7 |
| 20260508130325 | 48 | 234 | 0.0 | 3.0 | 0.00 | 0.14 | 0.01 | 97 | 1011.7 |
| 20260508130028 | 47 | 234 | 1.0 | 3.0 | 0.00 | 0.14 | 0.01 | 97 | 1012.0 |
| 20260508125847 | 48 | 234 | 0.0 | 3.0 | 0.00 | 0.14 | 0.01 | 97 | 1011.8 |
| 20260508125347 | 47 | 234 | 0.0 | 1.0 | 0.00 | 0.14 | 0.01 | 97 | 1011.8 |
| 20260508124915 | 47 | 205 | 0.0 | 0.0 | 0.00 | 0.14 | 0.01 | 98 | 1011.9 |
| 20260508124537 | 47 | 205 | 0.0 | 0.0 | 0.00 | 0.14 | 0.01 | 98 | 1012.2 |
| 20260508124354 | 47 | 205 | 0.0 | 0.0 | 0.00 | 0.14 | 0.01 | 98 | 1011.8 |
| 20260508123812 | 47 | 205 | 0.0 | 0.0 | 0.00 | 0.14 | 0.01 | 98 | 1011.6 |
| 20260508123335 | 46 | 205 | 0.0 | 0.0 | 0.00 | 0.14 | 0.01 | 98 | 1011.6 |
| 20260508123014 | 46 | 205 | 0.0 | 0.0 | 0.00 | 0.14 | 0.01 | 98 | 1012.1 |
| 20260508122815 | 46 | 205 | 0.0 | 0.0 | 0.00 | 0.14 | 0.01 | 98 | 1011.8 |
| 20260508122336 | 46 | 206 | 0.0 | 0.0 | 0.00 | 0.14 | 0.01 | 98 | 1011.7 |
| 20260508121815 | 46 | 206 | 0.0 | 0.0 | 0.00 | 0.14 | 0.01 | 98 | 1011.9 |
| 20260508121517 | 45 | 206 | 0.0 | 0.0 | 0.00 | 0.14 | 0.01 | 98 | 1012.2 |
| 20260508121404 | 45 | 206 | 0.0 | 0.0 | 0.00 | 0.14 | 0.01 | 98 | 1011.8 |
| 20260508121321 | 45 | 206 | 0.0 | 0.0 | 0.00 | 0.14 | 0.01 | 98 | 1011.8 |
| 20260508120818 | 45 | 209 | 0.0 | 0.0 | 0.00 | 0.14 | 0.01 | 98 | 1011.8 |
| 20260508120337 | 44 | 201 | 0.0 | 0.0 | 0.00 | 0.14 | 0.01 | 98 | 1011.6 |
| 20260508120030 | 44 | 201 | 0.0 | 0.0 | 0.00 | 0.14 | 0.01 | 98 | 1012.0 |
| 20260508115836 | 44 | 201 | 0.0 | 0.0 | 0.00 | 0.14 | 0.01 | 98 | 1011.6 |
| 20260508115357 | 44 | 201 | 0.0 | 0.0 | 0.00 | 0.14 | 0.01 | 97 | 1011.5 |
| 20260508114835 | 43 | 201 | 0.0 | 0.0 | 0.00 | 0.14 | 0.01 | 97 | 1011.6 |
| 20260508114528 | 42 | 201 | 0.0 | 0.0 | 0.00 | 0.14 | 0.01 | 97 | 1011.9 |
| 20260508114356 | 43 | 201 | 0.0 | 0.0 | 0.00 | 0.14 | 0.01 | 97 | 1011.6 |
| 20260508113836 | 42 | 201 | 0.0 | 0.0 | 0.00 | 0.14 | 0.01 | 97 | 1011.3 |
| 20260508113317 | 42 | 201 | 0.0 | 0.0 | 0.00 | 0.14 | 0.01 | 97 | 1011.2 |
| 20260508113005 | 41 | 201 | 0.0 | 0.0 | 0.00 | 0.14 | 0.01 | 97 | 1011.5 |
| 20260508112844 | 42 | 201 | 0.0 | 0.0 | 0.00 | 0.14 | 0.01 | 96 | 1011.2 |
| 20260508112324 | 41 | 201 | 0.0 | 0.0 | 0.00 | 0.14 | 0.01 | 96 | 1011.3 |
| 20260508111847 | 41 | 201 | 0.0 | 0.0 | 0.00 | 0.14 | 0.01 | 96 | 1011.3 |
| 20260508111521 | 41 | 201 | 0.0 | 0.0 | 0.00 | 0.14 | 0.01 | 96 | 1011.6 |
| 20260508111328 | 41 | 201 | 0.0 | 0.0 | 0.00 | 0.14 | 0.01 | 96 | 1011.3 |
| 20260508110849 | 41 | 201 | 0.0 | 0.0 | 0.00 | 0.14 | 0.01 | 96 | 1011.3 |
| 20260508110310 | 41 | 201 | 0.0 | 0.0 | 0.00 | 0.14 | 0.01 | 96 | 1011.3 |
| 20260508110051 | 41 | 201 | 0.0 | 0.0 | 0.00 | 0.14 | 0.01 | 96 | 1011.7 |
| 20260508105814 | 41 | 201 | 0.0 | 0.0 | 0.00 | 0.14 | 0.01 | 96 | 1011.2 |
| 20260508105316 | 41 | 201 | 0.0 | 0.0 | 0.00 | 0.14 | 0.01 | 96 | 1011.2 |
| 20260508104835 | 41 | 201 | 0.0 | 0.0 | 0.00 | 0.14 | 0.01 | 96 | 1011.3 |
| 20260508104515 | 41 | 201 | 0.0 | 1.0 | 0.00 | 0.14 | 0.01 | 96 | 1011.6 |
| 20260508104336 | 41 | 201 | 0.0 | 1.0 | 0.00 | 0.14 | 0.01 | 96 | 1011.2 |
| 20260508103834 | 41 | 201 | 0.0 | 1.0 | 0.00 | 0.14 | 0.01 | 96 | 1011.2 |
| 20260508103335 | 41 | 201 | 0.0 | 0.0 | 0.00 | 0.14 | 0.01 | 96 | 1011.1 |
| 20260508103107 | 40 | 201 | 0.0 | 0.0 | 0.00 | 0.14 | 0.01 | 96 | 1011.5 |
| 20260508102901 | 41 | 201 | 0.0 | 0.0 | 0.00 | 0.14 | 0.01 | 96 | 1011.2 |
| 20260508102319 | 41 | 201 | 0.0 | 0.0 | 0.00 | 0.14 | 0.01 | 96 | 1011.1 |
| 20260508101843 | 41 | 201 | 0.0 | 0.0 | 0.00 | 0.14 | 0.01 | 96 | 1011.3 |
| 20260508101520 | 40 | 201 | 0.0 | 0.0 | 0.00 | 0.14 | 0.01 | 96 | 1011.8 |
| 20260508101324 | 41 | 201 | 0.0 | 0.0 | 0.00 | 0.14 | 0.01 | 96 | 1011.3 |
| 20260508100931 | 41 | 201 | 0.0 | 0.0 | 0.00 | 0.14 | 0.01 | 96 | 1011.1 |
| 20260508100417 | 41 | 201 | 0.0 | 0.0 | 0.00 | 0.14 | 0.01 | 96 | 1011.2 |
| 20260508100024 | 40 | 201 | 0.0 | 0.0 | 0.00 | 0.14 | 0.01 | 96 | 1011.5 |
| 20260508095858 | 41 | 201 | 0.0 | 0.0 | 0.00 | 0.14 | 0.01 | 96 | 1011.2 |
| 20260508095319 | 41 | 201 | 0.0 | 0.0 | 0.00 | 0.14 | 0.01 | 96 | 1011.3 |
| 20260508094839 | 40 | 201 | 0.0 | 0.0 | 0.00 | 0.14 | 0.01 | 96 | 1011.2 |
| 20260508094506 | 40 | 201 | 0.0 | 0.0 | 0.00 | 0.14 | 0.01 | 96 | 1011.5 |
| 20260508094341 | 40 | 201 | 0.0 | 0.0 | 0.00 | 0.14 | 0.01 | 96 | 1011.1 |
| 20260508093907 | 40 | 201 | 0.0 | 0.0 | 0.00 | 0.14 | 0.01 | 96 | 1011.2 |
| 20260508093414 | 40 | 201 | 0.0 | 0.0 | 0.00 | 0.14 | 0.01 | 96 | 1011.3 |
| 20260508093035 | 39 | 201 | 0.0 | 0.0 | 0.00 | 0.14 | 0.01 | 96 | 1011.6 |
| 20260508092852 | 40 | 201 | 0.0 | 0.0 | 0.00 | 0.14 | 0.01 | 96 | 1011.2 |
| 20260508092313 | 40 | 201 | 0.0 | 0.0 | 0.00 | 0.14 | 0.01 | 96 | 1011.3 |
| 20260508091832 | 39 | 201 | 0.0 | 0.0 | 0.00 | 0.14 | 0.01 | 95 | 1011.3 |
| 20260508091540 | 39 | 201 | 0.0 | 0.0 | 0.00 | 0.14 | 0.01 | 95 | 1011.7 |
| 20260508091314 | 39 | 201 | 0.0 | 0.0 | 0.00 | 0.14 | 0.01 | 95 | 1011.2 |
| 20260508090844 | 39 | 201 | 0.0 | 0.0 | 0.00 | 0.14 | 0.01 | 95 | 1011.2 |
| 20260508090325 | 39 | 201 | 0.0 | 0.0 | 0.00 | 0.14 | 0.01 | 95 | 1011.3 |
| 20260508090010 | 39 | 201 | 0.0 | 0.0 | 0.01 | 0.14 | 0.01 | 95 | 1011.6 |
| 20260508085827 | 39 | 201 | 0.0 | 0.0 | 0.01 | 0.14 | 0.01 | 95 | 1011.2 |
| 20260508084827 | 39 | 201 | 0.0 | 0.0 | 0.01 | 0.14 | 0.01 | 95 | 1011.3 |
| 20260508084557 | 39 | 201 | 0.0 | 0.0 | 0.01 | 0.14 | 0.01 | 95 | 1011.7 |
| 20260508084502 | 39 | 201 | 0.0 | 0.0 | 0.01 | 0.14 | 0.01 | 95 | 1011.7 |
| 20260508084348 | 40 | 201 | 0.0 | 0.0 | 0.01 | 0.14 | 0.01 | 95 | 1011.3 |
| 20260508083850 | 40 | 201 | 0.0 | 0.0 | 0.01 | 0.14 | 0.01 | 95 | 1011.2 |
| 20260508083329 | 40 | 201 | 0.0 | 0.0 | 0.01 | 0.14 | 0.01 | 95 | 1011.2 |
| 20260508083055 | 39 | 201 | 0.0 | 0.0 | 0.01 | 0.14 | 0.01 | 95 | 1011.5 |
| 20260508082832 | 40 | 201 | 0.0 | 0.0 | 0.01 | 0.14 | 0.01 | 95 | 1011.1 |
| 20260508082352 | 40 | 201 | 0.0 | 0.0 | 0.01 | 0.14 | 0.01 | 94 | 1011.2 |
| 20260508081812 | 40 | 201 | 0.0 | 0.0 | 0.01 | 0.14 | 0.01 | 95 | 1011.2 |
| 20260508081509 | 40 | 201 | 0.0 | 0.0 | 0.01 | 0.14 | 0.01 | 95 | 1011.6 |
| 20260508081334 | 40 | 201 | 0.0 | 0.0 | 0.01 | 0.14 | 0.01 | 95 | 1011.3 |
| 20260508080901 | 41 | 201 | 0.0 | 0.0 | 0.01 | 0.14 | 0.01 | 95 | 1011.3 |
| 20260508080320 | 41 | 201 | 0.0 | 0.0 | 0.01 | 0.14 | 0.01 | 95 | 1011.2 |
| 20260508080047 | 40 | 201 | 0.0 | 0.0 | 0.00 | 0.13 | 0.00 | 95 | 1011.7 |
| 20260508075822 | 41 | 201 | 0.0 | 0.0 | 0.00 | 0.13 | 0.00 | 95 | 1011.2 |
| 20260508075323 | 41 | 201 | 0.0 | 0.0 | 0.00 | 0.13 | 0.00 | 95 | 1011.3 |
| 20260508074826 | 41 | 201 | 0.0 | 0.0 | 0.00 | 0.13 | 0.00 | 95 | 1011.3 |
| 20260508074539 | 40 | 201 | 0.0 | 0.0 | 0.00 | 0.13 | 0.00 | 95 | 1011.7 |
| 20260508074414 | 41 | 201 | 0.0 | 0.0 | 0.00 | 0.13 | 0.00 | 95 | 1011.3 |
| 20260508073832 | 41 | 201 | 0.0 | 0.0 | 0.00 | 0.13 | 0.00 | 95 | 1011.3 |
| 20260508073332 | 41 | 201 | 0.0 | 0.0 | 0.00 | 0.13 | 0.00 | 94 | 1011.3 |
| 20260508073043 | 41 | 201 | 0.0 | 0.0 | 0.00 | 0.13 | 0.00 | 94 | 1011.8 |
| 20260508072847 | 41 | 201 | 0.0 | 0.0 | 0.00 | 0.13 | 0.00 | 94 | 1011.3 |
| 20260508072313 | 41 | 201 | 0.0 | 0.0 | 0.00 | 0.13 | 0.00 | 94 | 1011.3 |
| 20260508071915 | 42 | 201 | 0.0 | 0.0 | 0.00 | 0.13 | 0.00 | 94 | 1011.3 |
| 20260508071513 | 41 | 201 | 0.0 | 0.0 | 0.00 | 0.13 | 0.00 | 94 | 1011.7 |
| 20260508071315 | 42 | 201 | 0.0 | 0.0 | 0.00 | 0.13 | 0.00 | 94 | 1011.4 |
| 20260508070837 | 42 | 201 | 0.0 | 0.0 | 0.00 | 0.13 | 0.00 | 94 | 1011.3 |
| 20260508070317 | 42 | 201 | 0.0 | 0.0 | 0.00 | 0.13 | 0.00 | 94 | 1011.3 |
| 20260508070039 | 42 | 201 | 0.0 | 0.0 | 0.00 | 0.13 | 0.00 | 94 | 1011.8 |
| 20260508065926 | 42 | 201 | 0.0 | 1.0 | 0.00 | 0.13 | 0.00 | 94 | 1011.4 |
| 20260508065412 | 42 | 201 | 0.0 | 1.0 | 0.00 | 0.13 | 0.00 | 94 | 1011.3 |
| 20260508064916 | 43 | 201 | 0.0 | 1.0 | 0.00 | 0.13 | 0.00 | 94 | 1011.4 |
| 20260508064538 | 42 | 201 | 0.0 | 1.0 | 0.00 | 0.13 | 0.00 | 95 | 1011.8 |
| 20260508064335 | 43 | 201 | 0.0 | 1.0 | 0.00 | 0.13 | 0.00 | 95 | 1011.4 |
| 20260508063900 | 43 | 201 | 0.0 | 1.0 | 0.00 | 0.13 | 0.00 | 95 | 1011.3 |
| 20260508063339 | 43 | 201 | 1.0 | 2.0 | 0.00 | 0.13 | 0.00 | 95 | 1011.3 |
| 20260508063101 | 43 | 201 | 0.0 | 2.0 | 0.00 | 0.13 | 0.00 | 95 | 1011.7 |
| 20260508062841 | 43 | 201 | 1.0 | 2.0 | 0.00 | 0.13 | 0.00 | 95 | 1011.3 |
| 20260508062427 | 43 | 201 | 0.0 | 5.0 | 0.00 | 0.13 | 0.00 | 95 | 1011.3 |
| 20260508061845 | 43 | 201 | 1.0 | 5.0 | 0.00 | 0.13 | 0.00 | 95 | 1011.4 |
| 20260508061551 | 43 | 201 | 1.0 | 5.0 | 0.00 | 0.13 | 0.00 | 95 | 1011.8 |
| 20260508061325 | 43 | 201 | 1.0 | 2.0 | 0.00 | 0.13 | 0.00 | 95 | 1011.4 |
| 20260508060932 | 43 | 201 | 0.0 | 3.0 | 0.00 | 0.13 | 0.00 | 95 | 1011.4 |
| 20260508060850 | 43 | 201 | 0.0 | 3.0 | 0.00 | 0.13 | 0.00 | 95 | 1011.4 |
| 20260508060349 | 43 | 201 | 1.0 | 3.0 | 0.00 | 0.13 | 0.00 | 95 | 1011.5 |
| 20260508060013 | 43 | 201 | 1.0 | 3.0 | 0.00 | 0.13 | 0.00 | 95 | 1011.9 |
| 20260508055830 | 43 | 201 | 2.0 | 3.0 | 0.00 | 0.13 | 0.00 | 95 | 1011.6 |
| 20260508055350 | 43 | 201 | 0.0 | 3.0 | 0.00 | 0.13 | 0.00 | 95 | 1011.6 |
| 20260508054933 | 43 | 201 | 0.0 | 4.0 | 0.00 | 0.13 | 0.00 | 95 | 1011.6 |
| 20260508054534 | 43 | 201 | 1.0 | 5.0 | 0.00 | 0.13 | 0.00 | 95 | 1011.9 |
| 20260508054331 | 43 | 204 | 2.0 | 5.0 | 0.00 | 0.13 | 0.00 | 95 | 1011.7 |
| 20260508053813 | 43 | 200 | 1.0 | 4.0 | 0.00 | 0.13 | 0.00 | 95 | 1011.7 |
| 20260508053335 | 43 | 198 | 1.0 | 3.0 | 0.00 | 0.13 | 0.00 | 94 | 1011.7 |
| 20260508053007 | 42 | 198 | 0.0 | 2.0 | 0.00 | 0.13 | 0.00 | 94 | 1012.1 |
| 20260508052835 | 43 | 198 | 0.0 | 3.0 | 0.00 | 0.13 | 0.00 | 94 | 1011.8 |
| 20260508052315 | 43 | 198 | 1.0 | 3.0 | 0.00 | 0.13 | 0.00 | 94 | 1011.7 |
| 20260508051816 | 43 | 198 | 1.0 | 2.0 | 0.00 | 0.13 | 0.00 | 94 | 1011.8 |
| 20260508051531 | 43 | 198 | 0.0 | 2.0 | 0.00 | 0.13 | 0.00 | 94 | 1012.0 |
| 20260508051337 | 44 | 198 | 1.0 | 2.0 | 0.00 | 0.13 | 0.00 | 94 | 1011.7 |
| 20260508050902 | 44 | 198 | 0.0 | 2.0 | 0.00 | 0.13 | 0.00 | 94 | 1011.7 |
| 20260508050343 | 44 | 198 | 0.0 | 3.0 | 0.00 | 0.13 | 0.00 | 95 | 1011.7 |
| 20260508050055 | 43 | 198 | 0.0 | 4.0 | 0.00 | 0.13 | 0.00 | 95 | 1012.0 |
| 20260508045820 | 44 | 198 | 1.0 | 4.0 | 0.00 | 0.13 | 0.00 | 95 | 1011.6 |
| 20260508045342 | 44 | 202 | 2.0 | 5.0 | 0.00 | 0.13 | 0.00 | 94 | 1011.6 |
| 20260508044840 | 44 | 177 | 1.0 | 5.0 | 0.00 | 0.13 | 0.00 | 95 | 1011.6 |
| 20260508044551 | 43 | 174 | 0.0 | 3.0 | 0.00 | 0.13 | 0.00 | 95 | 1012.0 |
| 20260508044321 | 44 | 174 | 1.0 | 3.0 | 0.00 | 0.13 | 0.00 | 94 | 1011.6 |
| 20260508043822 | 44 | 172 | 0.0 | 0.0 | 0.00 | 0.13 | 0.00 | 94 | 1011.6 |